ARBO2: Arbuckle Lake

Data processed at Wed May 22 2019 23:50


All information presented herein is the property of the government of the United States of America and may be revised or deleted at any time without prior notice.
Dissemination of this information without the expressed written consent of the Public Affairs Office, Tulsa District U.S. Army Corps of Engineers is strictly prohibited.
These data are gathered electronically and, as presented, have not undergone any form of quality control. These data are not guaranteed to be valid or correct.
Go to home page.
Go to station list.
Go to home page.

Upstream stations:

Downstream station:
Previous Day
Next Day
Current Day
    
SHEF ID:       ARBO2     Arbuckle Lake
STATION TYPE:  RESERVOIR
Flood Pool:  Bottom =   872.00, Top =   885.30

               PRECIP PRECIP(A) ELEVATION   STORAGE    INFLOW   RELEASE   VOLTAGE  BAT-LOAD
                   in        in        ft     ac-ft       cfs       cfs      volt      volt
              Ccp-Rev   Ccp-Rev   Ccp-Rev   Ccp-Rev  Rev-Regi  Rev-Regi   Ccp-Rev   Ccp-Rev
(US/Central)
05/22 00:00      0.00      ----    874.38     78159       605         1     13.53     13.05
05/22 01:00      0.00      ----    874.39     78184       544         1     13.53     13.05
05/22 02:00      0.00      ----    874.42     78259       544         1     13.53     13.05
05/22 03:00      0.00      ----    874.43     78284       484         1     13.53     13.05
05/22 04:00      0.00      ----    874.45     78334       484         1     13.53     13.05
05/22 05:00      0.00      ----    874.46     78359       363         1     13.53     13.05
05/22 06:00      0.00      ----    874.47     78384       363         1     13.53     13.05
05/22 07:00      0.00      ----    874.48     78409       363         1     13.53     13.05
05/22 08:00      0.00      ----    874.49     78434       363         1     13.53     13.05
05/22 09:00      0.00      ----    874.51     78483       363         1     13.53     13.05
05/22 10:00      0.00      ----    874.52     78508       423         1     13.53     13.05
05/22 11:00      0.00      ----    874.53     78533       484         1     13.53     13.05
05/22 12:00      0.00      ----    874.55     78583       423         1     13.53     13.05
05/22 13:00      0.00      ----    874.57     78633       423         1     13.53     13.05
05/22 14:00      0.00      ----    874.58     78658       423         1     13.53     13.05
05/22 15:00      0.00      ----    874.59     78683       424         1     13.53     13.05
05/22 16:00      0.00      ----    874.60     78708       363         1     13.53     13.05
05/22 17:00      0.00      ----    874.62     78758       424         1     13.53     13.05
05/22 18:00      0.00      ----    874.63     78783       424         1     13.53     13.05
05/22 19:00      0.00      ----    874.65     78833       424         1     13.53     13.05
05/22 20:00      0.00      ----    874.66     78858       363         1     13.53     13.05
05/22 21:00      0.00      ----    874.67     78883       363         1     13.60     13.05
05/22 22:00      0.00      ----    874.68     78908       303         1     13.60     13.05
05/22 23:00      0.00      ----    874.69     78933       303         1     13.60     13.05